Location: Harrison
(47.4490°N, 116.7734°W)
Time: 15:56:07
(UTC+00:00)

ACS3 Solar Sail - Visible Passes

Search period start: 23 July 2024 00:00
Search period end: 02 August 2024 00:00
Orbit: 993 x 1022 km, 97.4° (Epoch: 23 July)

Date Brightness Start Highest point End Pass type
(mag) Time Alt. Az. Time Alt. Az. Time Alt. Az.
23 Jul 5.2 04:09:12 10° SE 04:15:12 54° ENE 04:21:17 10° N visible
23 Jul 6.4 05:54:19 10° SSW 05:59:38 29° W 06:05:00 10° NNW visible
24 Jul 4.9 04:43:18 10° SSE 04:49:32 88° WSW 04:55:51 10° NNW visible
24 Jul 7.1 06:30:55 10° WSW 06:34:33 16° W 06:38:13 10° NW visible
25 Jul 5.6 05:18:02 10° S 05:24:03 50° W 05:30:10 10° NNW visible
26 Jul 5.1 04:08:17 10° SE 04:14:19 55° ENE 04:20:26 10° N visible
26 Jul 6.4 05:53:30 10° SSW 05:58:46 28° W 06:04:06 10° NNW visible
27 Jul 4.9 04:42:25 10° SSE 04:48:40 86° WSW 04:54:59 10° NNW visible
27 Jul 7.1 06:30:11 10° WSW 06:33:43 15° W 06:37:16 10° NW visible
28 Jul 5.6 05:17:11 10° S 05:23:11 49° W 05:29:17 10° NNW visible
29 Jul 5.1 04:07:23 10° SSE 04:13:27 57° ENE 04:19:35 10° N visible
29 Jul 6.5 05:52:42 10° SSW 05:57:55 28° W 06:03:13 10° NNW visible
30 Jul 4.9 04:41:33 10° SSE 04:47:47 84° W 04:54:08 10° NNW visible
30 Jul 7.1 06:29:28 10° WSW 06:32:52 15° W 06:36:18 10° NW visible
31 Jul 5.7 05:16:21 10° S 05:22:19 48° W 05:28:24 10° NNW visible
01 Aug 5.1 04:06:28 10° SSE 04:12:33 58° ENE 04:18:44 10° N visible
01 Aug 6.5 05:51:54 10° SW 05:57:04 27° W 06:02:18 10° NNW visible
